Time,TemperatureF,DewpointF,PressureIn,WindDirection,WindDirectionDegrees,WindSpeedMPH,WindSpeedGustMPH,Humidity,HourlyPrecipIn,Conditions,Clouds,dailyrainin,SolarRadiationWatts/m^2,SoftwareType,DateUTC
2013-07-19 00:00:00,84.9,74.4,29.95,SW,223,0.0,0.0,71,0.00,,---,0.00,0.00,VWS V14.01,2013-07-19 04:00:00,
2013-07-19 00:01:00,84.9,74.4,29.95,South,189,0.0,0.0,71,0.00,,---,0.00,0.00,VWS V14.01,2013-07-19 04:01:00,
2013-07-19 00:06:00,84.8,74.8,29.95,SW,229,0.0,0.0,72,0.00,,---,0.00,0.00,VWS V14.01,2013-07-19 04:06:00,
2013-07-19 00:11:00,84.7,74.7,29.95,SW,223,0.0,0.0,72,0.00,,---,0.00,0.00,VWS V14.01,2013-07-19 04:11:00,
2013-07-19 00:16:00,84.8,74.8,29.95,SSW,207,0.0,0.0,72,0.00,,---,0.00,0.00,VWS V14.01,2013-07-19 04:16:00,
2013-07-19 00:21:00,84.7,74.7,29.95,SSW,211,0.0,0.0,72,0.00,,---,0.00,0.00,VWS V14.01,2013-07-19 04:21:00,
2013-07-19 00:26:00,84.5,74.9,29.95,WSW,242,0.0,0.0,73,0.00,,---,0.00,0.00,VWS V14.01,2013-07-19 04:26:00,
2013-07-19 00:31:00,84.4,74.8,29.95,West,277,0.0,0.0,73,0.00,,---,0.00,0.00,VWS V14.01,2013-07-19 04:31:00,
2013-07-19 00:36:00,84.2,75.0,29.95,WSW,252,0.0,0.0,74,0.00,,---,0.00,0.00,VWS V14.01,2013-07-19 04:36:00,
2013-07-19 00:41:00,84.0,74.8,29.96,SW,228,0.0,0.0,74,0.00,,---,0.00,0.00,VWS V14.01,2013-07-19 04:41:00,
2013-07-19 00:46:00,83.9,74.7,29.96,SW,232,0.0,0.0,74,0.00,,---,0.00,0.00,VWS V14.01,2013-07-19 04:46:00,
2013-07-19 00:51:00,83.9,74.7,29.96,South,190,0.0,0.0,74,0.00,,---,0.00,0.00,VWS V14.01,2013-07-19 04:51:00,
2013-07-19 00:56:00,83.7,74.9,29.95,SW,228,0.0,0.0,75,0.00,,---,0.00,0.00,VWS V14.01,2013-07-19 04:56:00,
2013-07-19 01:01:00,83.7,74.9,29.95,SW,217,0.0,0.0,75,0.00,,---,0.00,0.00,VWS V14.01,2013-07-19 05:01:00,
2013-07-19 01:06:00,83.7,74.9,29.95,SW,223,0.0,0.0,75,0.00,,---,0.00,0.00,VWS V14.01,2013-07-19 05:06:00,
2013-07-19 01:11:00,83.7,74.9,29.95,SW,223,0.0,0.0,75,0.00,,---,0.00,0.00,VWS V14.01,2013-07-19 05:11:00,
2013-07-19 01:16:00,84.5,74.9,29.95,SW,223,0.0,0.0,73,0.00,,---,0.00,0.00,VWS V14.01,2013-07-19 05:16:00,
2013-07-19 01:21:00,84.5,74.1,29.95,SW,223,0.0,0.0,71,0.00,,---,0.00,0.00,VWS V14.01,2013-07-19 05:21:00,
2013-07-19 01:26:00,84.2,74.6,29.95,SW,233,0.0,0.0,73,0.00,,---,0.00,0.00,VWS V14.01,2013-07-19 05:26:00,
2013-07-19 01:31:00,83.4,74.7,29.95,WSW,255,0.0,0.0,75,0.00,,---,0.00,0.00,VWS V14.01,2013-07-19 05:31:00,
2013-07-19 01:36:00,83.3,74.9,29.95,WSW,246,0.0,0.0,76,0.00,,---,0.00,0.00,VWS V14.01,2013-07-19 05:36:00,
2013-07-19 01:41:00,82.7,74.8,29.95,SSW,212,0.0,0.0,77,0.00,,---,0.00,0.00,VWS V14.01,2013-07-19 05:41:00,
2013-07-19 01:46:00,82.5,74.9,29.95,SSW,206,0.0,0.0,78,0.00,,---,0.00,0.00,VWS V14.01,2013-07-19 05:46:00,
2013-07-19 01:51:00,82.5,74.9,29.95,SW,234,0.0,0.0,78,0.00,,---,0.00,0.00,VWS V14.01,2013-07-19 05:51:00,
2013-07-19 01:56:00,82.4,74.9,29.95,WSW,242,0.0,0.0,78,0.00,,---,0.00,0.00,VWS V14.01,2013-07-19 05:56:00,
2013-07-19 02:01:00,82.2,75.0,29.95,SW,228,0.0,0.0,79,0.00,,---,0.00,0.00,VWS V14.01,2013-07-19 06:01:00,
2013-07-19 02:06:00,82.2,75.0,29.95,WSW,242,0.0,0.0,79,0.00,,---,0.00,0.00,VWS V14.01,2013-07-19 06:06:00,
2013-07-19 02:11:00,82.1,74.9,29.95,SW,221,0.0,0.0,79,0.00,,---,0.00,0.00,VWS V14.01,2013-07-19 06:11:00,
2013-07-19 02:16:00,82.1,74.9,29.95,SW,236,0.0,0.0,79,0.00,,---,0.00,0.00,VWS V14.01,2013-07-19 06:16:00,
2013-07-19 02:21:00,82.1,74.9,29.95,SW,221,0.0,0.0,79,0.00,,---,0.00,0.00,VWS V14.01,2013-07-19 06:21:00,
2013-07-19 02:26:00,82.1,74.9,29.94,West,280,0.0,0.0,79,0.00,,---,0.00,0.00,VWS V14.01,2013-07-19 06:26:00,
2013-07-19 02:31:00,82.0,74.8,29.95,SW,226,0.0,0.0,79,0.00,,---,0.00,0.00,VWS V14.01,2013-07-19 06:31:00,
2013-07-19 02:36:00,81.8,75.0,29.95,SSW,198,0.0,0.0,80,0.00,,---,0.00,0.00,VWS V14.01,2013-07-19 06:36:00,
2013-07-19 02:41:00,81.6,75.2,29.95,SW,224,0.0,0.0,81,0.00,,---,0.00,0.00,VWS V14.01,2013-07-19 06:41:00,
2013-07-19 02:46:00,81.5,75.1,29.95,SW,225,0.0,0.0,81,0.00,,---,0.00,0.00,VWS V14.01,2013-07-19 06:46:00,
2013-07-19 02:51:00,81.6,75.2,29.95,SW,227,0.0,0.0,81,0.00,,---,0.00,0.00,VWS V14.01,2013-07-19 06:51:00,
2013-07-19 02:56:00,81.4,75.0,29.94,SW,235,0.0,0.0,81,0.00,,---,0.00,0.00,VWS V14.01,2013-07-19 06:56:00,
2013-07-19 03:01:00,81.4,75.0,29.94,SW,229,0.0,0.0,81,0.00,,---,0.00,0.00,VWS V14.01,2013-07-19 07:01:00,
2013-07-19 03:06:00,81.5,75.1,29.95,SSW,205,0.0,0.0,81,0.00,,---,0.00,0.00,VWS V14.01,2013-07-19 07:06:00,
2013-07-19 03:11:00,81.6,75.2,29.95,South,179,0.0,0.0,81,0.00,,---,0.00,0.00,VWS V14.01,2013-07-19 07:11:00,
2013-07-19 03:16:00,81.5,75.1,29.95,SW,218,0.0,0.0,81,0.00,,---,0.00,0.00,VWS V14.01,2013-07-19 07:16:00,
2013-07-19 03:21:00,81.4,75.4,29.94,SW,223,0.0,0.0,82,0.00,,---,0.00,0.00,VWS V14.01,2013-07-19 07:21:00,
2013-07-19 03:26:00,81.3,75.3,29.94,WSW,254,0.0,0.0,82,0.00,,---,0.00,0.00,VWS V14.01,2013-07-19 07:26:00,
2013-07-19 03:31:00,81.4,75.4,29.94,SW,217,0.0,0.0,82,0.00,,---,0.00,0.00,VWS V14.01,2013-07-19 07:31:00,
2013-07-19 03:36:00,81.4,75.4,29.94,SW,217,0.0,0.0,82,0.00,,---,0.00,0.00,VWS V14.01,2013-07-19 07:36:00,
2013-07-19 03:41:00,81.1,75.1,29.95,WSW,242,0.0,0.0,82,0.00,,---,0.00,0.00,VWS V14.01,2013-07-19 07:41:00,
2013-07-19 03:46:00,81.1,75.1,29.95,WSW,252,0.0,0.0,82,0.00,,---,0.00,0.00,VWS V14.01,2013-07-19 07:46:00,
2013-07-19 03:51:00,81.2,75.2,29.94,SW,227,0.0,0.0,82,0.00,,---,0.00,0.00,VWS V14.01,2013-07-19 07:51:00,
2013-07-19 03:56:00,81.3,75.3,29.94,SSW,213,0.0,0.0,82,0.00,,---,0.00,0.00,VWS V14.01,2013-07-19 07:56:00,
2013-07-19 04:01:00,81.6,75.6,29.94,SW,225,0.0,0.0,82,0.00,,---,0.00,0.00,VWS V14.01,2013-07-19 08:01:00,
2013-07-19 04:06:00,81.3,75.3,29.94,SW,225,0.0,0.0,82,0.00,,---,0.00,0.00,VWS V14.01,2013-07-19 08:06:00,
2013-07-19 04:11:00,81.6,75.6,29.94,SW,225,0.0,0.0,82,0.00,,---,0.00,0.00,VWS V14.01,2013-07-19 08:11:00,
2013-07-19 04:16:00,81.6,75.6,29.94,SW,225,0.0,0.0,82,0.00,,---,0.00,0.00,VWS V14.01,2013-07-19 08:16:00,
2013-07-19 04:21:00,81.1,75.1,29.94,SW,227,0.0,0.0,82,0.00,,---,0.00,0.00,VWS V14.01,2013-07-19 08:21:00,
2013-07-19 04:26:00,81.2,75.6,29.94,SW,215,0.0,0.0,83,0.00,,---,0.00,0.00,VWS V14.01,2013-07-19 08:26:00,
2013-07-19 04:31:00,81.1,75.1,29.94,WSW,240,0.0,0.0,82,0.00,,---,0.00,0.00,VWS V14.01,2013-07-19 08:31:00,
2013-07-19 04:36:00,81.0,75.3,29.93,WSW,240,0.0,0.0,83,0.00,,---,0.00,0.00,VWS V14.01,2013-07-19 08:36:00,
2013-07-19 04:41:00,81.2,75.2,29.94,WSW,240,0.0,0.0,82,0.00,,---,0.00,0.00,VWS V14.01,2013-07-19 08:41:00,
2013-07-19 04:46:00,81.2,75.2,29.94,WSW,244,0.0,0.0,82,0.00,,---,0.00,0.00,VWS V14.01,2013-07-19 08:46:00,
2013-07-19 04:51:00,81.4,75.4,29.94,WSW,244,0.0,0.0,82,0.00,,---,0.00,0.00,VWS V14.01,2013-07-19 08:51:00,
2013-07-19 04:56:00,81.1,75.1,29.94,WSW,248,0.0,0.0,82,0.00,,---,0.00,0.00,VWS V14.01,2013-07-19 08:56:00,
2013-07-19 05:01:00,80.9,74.9,29.94,WSW,248,0.0,0.0,82,0.00,,---,0.00,0.00,VWS V14.01,2013-07-19 09:01:00,
2013-07-19 05:06:00,80.9,74.9,29.93,WSW,248,0.0,0.0,82,0.00,,---,0.00,0.00,VWS V14.01,2013-07-19 09:06:00,
2013-07-19 05:11:00,81.0,75.0,29.93,WSW,248,0.0,0.0,82,0.00,,---,0.00,0.00,VWS V14.01,2013-07-19 09:11:00,
2013-07-19 05:16:00,81.1,75.1,29.93,WSW,248,0.0,0.0,82,0.00,,---,0.00,0.00,VWS V14.01,2013-07-19 09:16:00,
2013-07-19 05:21:00,80.8,74.8,29.93,WSW,248,0.0,0.0,82,0.00,,---,0.00,0.00,VWS V14.01,2013-07-19 09:21:00,
2013-07-19 05:26:00,80.6,75.0,29.93,WSW,248,0.0,0.0,83,0.00,,---,0.00,0.00,VWS V14.01,2013-07-19 09:26:00,
2013-07-19 05:31:00,80.4,75.1,29.93,SW,232,0.0,0.0,84,0.00,,---,0.00,0.00,VWS V14.01,2013-07-19 09:31:00,
2013-07-19 05:36:00,80.3,75.0,29.93,SW,232,0.0,0.0,84,0.00,,---,0.00,0.00,VWS V14.01,2013-07-19 09:36:00,
2013-07-19 05:41:00,80.4,75.1,29.93,SW,231,0.0,0.0,84,0.00,,---,0.00,0.00,VWS V14.01,2013-07-19 09:41:00,
2013-07-19 05:46:00,80.3,75.0,29.93,SW,231,0.0,0.0,84,0.00,,---,0.00,0.00,VWS V14.01,2013-07-19 09:46:00,
2013-07-19 05:51:00,80.1,75.2,29.93,SW,227,0.0,0.0,85,0.00,,---,0.00,5.00,VWS V14.01,2013-07-19 09:51:00,
2013-07-19 05:56:00,80.1,75.2,29.93,SW,219,0.0,0.0,85,0.00,,---,0.00,9.00,VWS V14.01,2013-07-19 09:56:00,
2013-07-19 06:01:00,80.0,75.1,29.93,SW,219,0.0,0.0,85,0.00,,---,0.00,12.00,VWS V14.01,2013-07-19 10:01:00,
2013-07-19 06:06:00,79.8,75.2,29.93,SW,217,0.0,0.0,86,0.00,,---,0.00,14.00,VWS V14.01,2013-07-19 10:06:00,
2013-07-19 06:11:00,80.0,75.4,29.93,SW,232,0.0,0.0,86,0.00,,---,0.00,16.00,VWS V14.01,2013-07-19 10:11:00,
2013-07-19 06:16:00,80.1,75.2,29.93,WSW,250,0.0,0.0,85,0.00,,---,0.00,21.00,VWS V14.01,2013-07-19 10:16:00,
2013-07-19 06:21:00,80.5,75.2,29.93,WSW,250,0.0,0.0,84,0.00,,---,0.00,30.00,VWS V14.01,2013-07-19 10:21:00,
2013-07-19 06:26:00,80.3,75.4,29.93,SW,232,0.0,0.0,85,0.00,,---,0.00,39.00,VWS V14.01,2013-07-19 10:26:00,
2013-07-19 06:31:00,80.3,75.4,29.93,SW,232,0.0,0.0,85,0.00,,---,0.00,49.00,VWS V14.01,2013-07-19 10:31:00,
2013-07-19 06:36:00,80.5,75.6,29.93,SW,219,0.0,0.0,85,0.00,,---,0.00,60.00,VWS V14.01,2013-07-19 10:36:00,
2013-07-19 06:41:00,80.5,75.6,29.93,SW,227,0.0,0.0,85,0.00,,---,0.00,69.00,VWS V14.01,2013-07-19 10:41:00,
2013-07-19 06:46:00,81.1,75.4,29.93,SW,234,0.0,0.0,83,0.00,,---,0.00,83.00,VWS V14.01,2013-07-19 10:46:00,
2013-07-19 06:51:00,81.5,75.8,29.93,SW,233,0.0,0.0,83,0.00,,---,0.00,97.00,VWS V14.01,2013-07-19 10:51:00,
2013-07-19 06:56:00,81.2,75.6,29.93,SW,234,0.0,0.0,83,0.00,,---,0.00,109.00,VWS V14.01,2013-07-19 10:56:00,
2013-07-19 07:01:00,81.2,75.6,29.93,SW,219,0.0,0.0,83,0.00,,---,0.00,120.00,VWS V14.01,2013-07-19 11:01:00,
2013-07-19 07:06:00,81.6,75.9,29.93,SW,219,0.0,0.0,83,0.00,,---,0.00,130.00,VWS V14.01,2013-07-19 11:06:00,
2013-07-19 07:11:00,81.7,76.0,29.93,SSW,207,0.0,0.0,83,0.00,,---,0.00,146.00,VWS V14.01,2013-07-19 11:11:00,
2013-07-19 07:16:00,81.9,76.2,29.93,SW,227,0.0,0.0,83,0.00,,---,0.00,158.00,VWS V14.01,2013-07-19 11:16:00,
2013-07-19 07:20:00,82.1,76.1,29.93,WSW,240,0.0,0.0,82,0.00,,---,0.00,171.00,VWS V14.01,2013-07-19 11:20:00,
2013-07-19 07:25:00,82.3,76.3,29.93,SSW,197,0.0,0.0,82,0.00,,---,0.00,183.00,VWS V14.01,2013-07-19 11:25:00,
2013-07-19 07:30:00,82.8,76.8,29.93,SSW,210,0.0,0.0,82,0.00,,---,0.00,192.00,VWS V14.01,2013-07-19 11:30:00,
2013-07-19 07:35:00,83.2,76.8,29.93,SW,229,0.0,0.0,81,0.00,,---,0.00,199.00,VWS V14.01,2013-07-19 11:35:00,
2013-07-19 07:41:00,83.1,76.7,29.93,SSW,202,0.0,0.0,81,0.00,,---,0.00,220.00,VWS V14.01,2013-07-19 11:41:00,
2013-07-19 07:46:00,83.6,77.2,29.93,West,261,0.0,0.0,81,0.00,,---,0.00,236.00,VWS V14.01,2013-07-19 11:46:00,
2013-07-19 07:51:00,84.3,77.1,29.94,SW,219,0.0,0.0,79,0.00,,---,0.00,244.00,VWS V14.01,2013-07-19 11:51:00,
2013-07-19 07:55:00,84.4,77.2,29.94,SW,235,0.0,0.0,79,0.00,,---,0.00,257.00,VWS V14.01,2013-07-19 11:55:00,
2013-07-19 08:00:00,84.2,77.0,29.94,SSW,211,0.0,0.0,79,0.00,,---,0.00,271.00,VWS V14.01,2013-07-19 12:00:00,
2013-07-19 08:05:00,84.6,77.8,29.94,West,273,0.0,0.0,80,0.00,,---,0.00,288.00,VWS V14.01,2013-07-19 12:05:00,
2013-07-19 08:10:00,85.1,77.5,29.94,SSW,197,0.0,0.0,78,0.00,,---,0.00,294.00,VWS V14.01,2013-07-19 12:10:00,
2013-07-19 08:15:00,85.2,77.6,29.94,WSW,238,0.0,0.0,78,0.00,,---,0.00,313.00,VWS V14.01,2013-07-19 12:15:00,
2013-07-19 08:21:00,84.8,77.2,29.94,SSW,205,0.0,0.0,78,0.00,,---,0.00,330.00,VWS V14.01,2013-07-19 12:21:00,
2013-07-19 08:25:00,85.7,78.1,29.94,West,260,0.0,0.0,78,0.00,,---,0.00,339.00,VWS V14.01,2013-07-19 12:25:00,
2013-07-19 08:30:00,86.6,77.7,29.94,WSW,248,0.0,0.0,75,0.00,,---,0.00,350.00,VWS V14.01,2013-07-19 12:30:00,
2013-07-19 08:35:00,86.9,78.0,29.94,West,272,0.0,0.0,75,0.00,,---,0.00,357.00,VWS V14.01,2013-07-19 12:35:00,
2013-07-19 08:40:00,87.1,77.8,29.94,South,175,0.0,0.0,74,0.00,,---,0.00,378.00,VWS V14.01,2013-07-19 12:40:00,
2013-07-19 08:45:00,87.0,77.7,29.94,SW,230,0.0,0.0,74,0.00,,---,0.00,392.00,VWS V14.01,2013-07-19 12:45:00,
2013-07-19 08:50:00,88.0,78.3,29.94,WSW,242,0.0,0.0,73,0.00,,---,0.00,408.00,VWS V14.01,2013-07-19 12:50:00,
2013-07-19 08:55:00,88.4,78.2,29.94,South,190,0.0,0.0,72,0.00,,---,0.00,429.00,VWS V14.01,2013-07-19 12:55:00,
2013-07-19 09:00:00,88.1,77.5,29.93,NW,326,0.0,0.0,71,0.00,,---,0.00,436.00,VWS V14.01,2013-07-19 13:00:00,
2013-07-19 09:05:00,87.4,77.3,29.93,SSW,202,0.0,0.0,72,0.00,,---,0.00,457.00,VWS V14.01,2013-07-19 13:05:00,
2013-07-19 09:10:00,87.4,77.3,29.94,SW,215,0.0,0.0,72,0.00,,---,0.00,471.00,VWS V14.01,2013-07-19 13:10:00,
2013-07-19 09:15:00,87.5,77.4,29.93,NNW,327,0.0,0.0,72,0.00,,---,0.00,483.00,VWS V14.01,2013-07-19 13:15:00,
2013-07-19 09:20:00,88.4,77.4,29.93,SSW,207,0.0,0.0,70,0.00,,---,0.00,499.00,VWS V14.01,2013-07-19 13:20:00,
2013-07-19 09:25:00,89.6,77.6,29.93,NNW,344,0.0,0.0,68,0.00,,---,0.00,508.00,VWS V14.01,2013-07-19 13:25:00,
2013-07-19 09:26:00,89.7,77.7,29.93,NW,318,0.0,0.0,68,0.00,,---,0.00,512.00,VWS V14.01,2013-07-19 13:26:00,
2013-07-19 09:31:00,89.1,77.6,29.93,WNW,296,0.0,0.0,69,0.00,,---,0.00,524.00,VWS V14.01,2013-07-19 13:31:00,
2013-07-19 09:36:00,90.2,77.8,29.93,NW,306,0.0,0.0,67,0.00,,---,0.00,531.00,VWS V14.01,2013-07-19 13:36:00,
2013-07-19 09:41:00,90.9,78.0,29.93,SSW,198,0.0,0.0,66,0.00,,---,0.00,548.00,VWS V14.01,2013-07-19 13:41:00,
2013-07-19 09:46:00,90.0,77.6,29.93,WSW,248,0.0,0.0,67,0.00,,---,0.00,564.00,VWS V14.01,2013-07-19 13:46:00,
2013-07-19 09:51:00,90.3,78.3,29.93,SW,217,0.0,0.0,68,0.00,,---,0.00,578.00,VWS V14.01,2013-07-19 13:51:00,
2013-07-19 09:56:00,89.5,77.6,29.93,WSW,257,0.0,0.0,68,0.00,,---,0.00,594.00,VWS V14.01,2013-07-19 13:56:00,
2013-07-19 10:01:00,89.2,77.3,29.93,South,185,0.0,0.0,68,0.00,,---,0.00,601.00,VWS V14.01,2013-07-19 14:01:00,
2013-07-19 10:06:00,90.5,78.1,29.92,West,260,0.0,0.0,67,0.00,,---,0.00,622.00,VWS V14.01,2013-07-19 14:06:00,
2013-07-19 10:11:00,91.3,77.9,29.92,NNW,338,0.0,0.0,65,0.00,,---,0.00,617.00,VWS V14.01,2013-07-19 14:11:00,
2013-07-19 10:16:00,91.9,78.0,29.92,WNW,290,0.0,0.0,64,0.00,,---,0.00,647.00,VWS V14.01,2013-07-19 14:16:00,
2013-07-19 10:21:00,91.9,78.0,29.92,SW,225,0.0,0.0,64,0.00,,---,0.00,656.00,VWS V14.01,2013-07-19 14:21:00,
2013-07-19 10:26:00,91.9,77.5,29.92,SSW,200,0.0,0.0,63,0.00,,---,0.00,670.00,VWS V14.01,2013-07-19 14:26:00,
2013-07-19 10:31:00,92.2,77.8,29.92,SSW,209,0.0,0.0,63,0.00,,---,0.00,673.00,VWS V14.01,2013-07-19 14:31:00,
2013-07-19 10:36:00,92.6,78.2,29.92,WSW,237,0.0,0.0,63,0.00,,---,0.00,684.00,VWS V14.01,2013-07-19 14:36:00,
2013-07-19 10:41:00,92.8,77.9,29.92,SW,215,0.0,0.0,62,0.00,,---,0.00,680.00,VWS V14.01,2013-07-19 14:41:00,
2013-07-19 10:46:00,92.9,78.0,29.92,SSW,200,0.0,0.0,62,0.00,,---,0.00,712.00,VWS V14.01,2013-07-19 14:46:00,
2013-07-19 10:51:00,92.7,78.3,29.92,NW,304,0.0,0.0,63,0.00,,---,0.00,722.00,VWS V14.01,2013-07-19 14:51:00,
2013-07-19 10:56:00,94.0,79.0,29.92,South,181,0.0,0.0,62,0.00,,---,0.00,698.00,VWS V14.01,2013-07-19 14:56:00,
2013-07-19 11:01:00,93.8,78.8,29.92,West,273,0.0,0.0,62,0.00,,---,0.00,733.00,VWS V14.01,2013-07-19 15:01:00,
2013-07-19 11:06:00,94.9,78.8,29.92,South,170,0.0,0.0,60,0.00,,---,0.00,603.00,VWS V14.01,2013-07-19 15:06:00,
2013-07-19 11:11:00,94.3,78.8,29.92,WNW,290,0.0,0.0,61,0.00,,---,0.00,737.00,VWS V14.01,2013-07-19 15:11:00,
2013-07-19 11:16:00,93.8,78.8,29.91,WSW,254,0.0,0.0,62,0.00,,---,0.00,758.00,VWS V14.01,2013-07-19 15:16:00,
2013-07-19 11:21:00,94.4,78.4,29.91,NNE,23,0.0,0.0,60,0.00,,---,0.00,752.00,VWS V14.01,2013-07-19 15:21:00,
2013-07-19 11:26:00,94.0,79.0,29.92,WNW,300,0.0,0.0,62,0.00,,---,0.00,773.00,VWS V14.01,2013-07-19 15:26:00,
2013-07-19 11:31:00,95.2,78.1,29.91,NW,318,0.0,0.0,58,0.00,,---,0.00,798.00,VWS V14.01,2013-07-19 15:31:00,
2013-07-19 11:36:00,95.5,78.9,29.91,NW,322,0.0,0.0,59,0.00,,---,0.00,803.00,VWS V14.01,2013-07-19 15:36:00,
2013-07-19 11:41:00,95.8,79.7,29.91,NNW,329,0.0,0.0,60,0.00,,---,0.00,821.00,VWS V14.01,2013-07-19 15:41:00,
2013-07-19 11:46:00,94.8,78.2,29.90,SSW,198,0.0,0.0,59,0.00,,---,0.00,838.00,VWS V14.01,2013-07-19 15:46:00,
2013-07-19 11:51:00,94.2,77.7,29.90,WNW,299,0.0,0.0,59,0.00,,---,0.00,851.00,VWS V14.01,2013-07-19 15:51:00,
2013-07-19 11:56:00,94.1,78.1,29.90,South,191,0.0,0.0,60,0.00,,---,0.00,271.00,VWS V14.01,2013-07-19 15:56:00,
2013-07-19 12:01:00,93.9,77.9,29.90,South,182,0.0,0.0,60,0.00,,---,0.00,257.00,VWS V14.01,2013-07-19 16:01:00,
2013-07-19 12:06:00,94.6,78.6,29.90,West,275,0.0,0.0,60,0.00,,---,0.00,209.00,VWS V14.01,2013-07-19 16:06:00,
2013-07-19 12:11:00,94.7,78.7,29.90,SSW,196,0.0,0.0,60,0.00,,---,0.00,768.00,VWS V14.01,2013-07-19 16:11:00,
2013-07-19 12:16:00,94.1,78.1,29.89,NNW,346,0.0,0.0,60,0.00,,---,0.00,260.00,VWS V14.01,2013-07-19 16:16:00,
2013-07-19 12:21:00,93.7,78.2,29.90,WSW,249,0.0,0.0,61,0.00,,---,0.00,301.00,VWS V14.01,2013-07-19 16:21:00,
2013-07-19 12:26:00,94.8,78.8,29.89,WSW,255,0.0,0.0,60,0.00,,---,0.00,919.00,VWS V14.01,2013-07-19 16:26:00,
2013-07-19 12:31:00,95.3,78.7,29.90,West,263,0.0,0.0,59,0.00,,---,0.00,956.00,VWS V14.01,2013-07-19 16:31:00,
2013-07-19 12:36:00,96.5,78.8,29.89,West,275,0.0,0.0,57,0.00,,---,0.00,949.00,VWS V14.01,2013-07-19 16:36:00,
2013-07-19 12:41:00,96.4,77.1,29.89,SSW,192,0.0,0.0,54,0.00,,---,0.00,907.00,VWS V14.01,2013-07-19 16:41:00,
2013-07-19 12:46:00,96.2,78.5,29.88,SSW,209,0.0,0.0,57,0.00,,---,0.00,888.00,VWS V14.01,2013-07-19 16:46:00,
2013-07-19 12:51:00,95.5,77.3,29.88,SSW,213,0.0,0.0,56,0.00,,---,0.00,900.00,VWS V14.01,2013-07-19 16:51:00,
2013-07-19 12:56:00,94.9,76.8,29.88,SSW,204,0.0,0.0,56,0.00,,---,0.00,258.00,VWS V14.01,2013-07-19 16:56:00,
2013-07-19 13:01:00,95.7,77.5,29.88,West,278,0.0,0.0,56,0.00,,---,0.00,1007.00,VWS V14.01,2013-07-19 17:01:00,
2013-07-19 13:06:00,95.8,77.1,29.88,South,178,0.0,0.0,55,0.00,,---,0.00,963.00,VWS V14.01,2013-07-19 17:06:00,
2013-07-19 13:11:00,95.7,76.4,29.88,SSW,192,0.0,0.0,54,0.00,,---,0.00,919.00,VWS V14.01,2013-07-19 17:11:00,
2013-07-19 13:16:00,94.5,76.4,29.88,SW,226,0.0,0.0,56,0.00,,---,0.00,981.00,VWS V14.01,2013-07-19 17:16:00,
2013-07-19 13:21:00,95.4,76.7,29.87,NW,316,0.0,0.0,55,0.00,,---,0.00,949.00,VWS V14.01,2013-07-19 17:21:00,
2013-07-19 13:26:00,95.8,76.5,29.87,SSW,196,0.0,0.0,54,0.00,,---,0.00,313.00,VWS V14.01,2013-07-19 17:26:00,
2013-07-19 13:31:00,95.9,76.6,29.87,SSE,166,0.0,0.0,54,0.00,,---,0.00,882.00,VWS V14.01,2013-07-19 17:31:00,
2013-07-19 13:36:00,95.6,76.9,29.87,SSW,210,0.0,0.0,55,0.00,,---,0.00,888.00,VWS V14.01,2013-07-19 17:36:00,
2013-07-19 13:41:00,95.6,75.8,29.87,WSW,247,0.0,0.0,53,0.00,,---,0.00,916.00,VWS V14.01,2013-07-19 17:41:00,
2013-07-19 13:46:00,95.8,77.1,29.87,WNW,293,0.0,0.0,55,0.00,,---,0.00,888.00,VWS V14.01,2013-07-19 17:46:00,
2013-07-19 13:51:00,96.6,77.2,29.86,South,170,0.0,0.0,54,0.00,,---,0.00,858.00,VWS V14.01,2013-07-19 17:51:00,
2013-07-19 13:56:00,96.7,77.3,29.86,WNW,297,0.0,0.0,54,0.00,,---,0.00,842.00,VWS V14.01,2013-07-19 17:56:00,
2013-07-19 14:01:00,96.7,76.2,29.86,WNW,295,0.0,0.0,52,0.00,,---,0.00,909.00,VWS V14.01,2013-07-19 18:01:00,
2013-07-19 14:06:00,96.4,76.5,29.86,SW,231,0.0,0.0,53,0.00,,---,0.00,343.00,VWS V14.01,2013-07-19 18:06:00,
2013-07-19 14:11:00,96.4,77.6,29.86,NW,312,0.0,0.0,55,0.00,,---,0.00,886.00,VWS V14.01,2013-07-19 18:11:00,
2013-07-19 14:16:00,96.2,76.3,29.85,SW,228,0.0,0.0,53,0.00,,---,0.00,309.00,VWS V14.01,2013-07-19 18:16:00,
2013-07-19 14:21:00,96.2,76.3,29.85,SW,219,0.0,0.0,53,0.00,,---,0.00,907.00,VWS V14.01,2013-07-19 18:21:00,
2013-07-19 14:26:00,96.2,75.7,29.85,NNW,347,0.0,0.0,52,0.00,,---,0.00,846.00,VWS V14.01,2013-07-19 18:26:00,
2013-07-19 14:31:00,97.2,76.1,29.85,SW,222,0.0,0.0,51,0.00,,---,0.00,856.00,VWS V14.01,2013-07-19 18:31:00,
2013-07-19 14:36:00,97.1,75.4,29.85,West,267,0.0,0.0,50,0.00,,---,0.00,846.00,VWS V14.01,2013-07-19 18:36:00,
2013-07-19 14:41:00,97.4,76.2,29.84,NW,305,0.0,0.0,51,0.00,,---,0.00,884.00,VWS V14.01,2013-07-19 18:41:00,
2013-07-19 14:46:00,97.1,76.0,29.84,NW,319,0.0,0.0,51,0.00,,---,0.00,851.00,VWS V14.01,2013-07-19 18:46:00,
2013-07-19 14:51:00,97.2,74.9,29.84,WSW,240,0.0,0.0,49,0.00,,---,0.00,824.00,VWS V14.01,2013-07-19 18:51:00,
2013-07-19 14:56:00,96.1,75.6,29.84,WSW,243,0.0,0.0,52,0.00,,---,0.00,828.00,VWS V14.01,2013-07-19 18:56:00,
2013-07-19 15:01:00,96.7,75.6,29.84,SW,218,0.0,0.0,51,0.00,,---,0.00,819.00,VWS V14.01,2013-07-19 19:01:00,
2013-07-19 15:06:00,96.7,75.0,29.83,West,260,0.0,0.0,50,0.00,,---,0.00,810.00,VWS V14.01,2013-07-19 19:06:00,
2013-07-19 15:11:00,96.6,75.5,29.83,West,265,0.0,0.0,51,0.00,,---,0.00,796.00,VWS V14.01,2013-07-19 19:11:00,
2013-07-19 15:16:00,97.4,76.2,29.83,West,263,0.0,0.0,51,0.00,,---,0.00,782.00,VWS V14.01,2013-07-19 19:16:00,
2013-07-19 15:21:00,97.8,74.8,29.83,WNW,295,0.0,0.0,48,0.00,,---,0.00,824.00,VWS V14.01,2013-07-19 19:21:00,
2013-07-19 15:26:00,97.4,75.7,29.83,West,269,0.0,0.0,50,0.00,,---,0.00,729.00,VWS V14.01,2013-07-19 19:26:00,
2013-07-19 15:31:00,97.4,75.7,29.82,South,180,0.0,0.0,50,0.00,,---,0.00,754.00,VWS V14.01,2013-07-19 19:31:00,
2013-07-19 15:36:00,96.9,75.2,29.82,SSE,167,0.0,0.0,50,0.00,,---,0.00,756.00,VWS V14.01,2013-07-19 19:36:00,
2013-07-19 15:41:00,97.0,74.7,29.82,WSW,245,0.0,0.0,49,0.00,,---,0.00,719.00,VWS V14.01,2013-07-19 19:41:00,
2013-07-19 15:46:00,97.3,75.6,29.82,SSW,196,0.0,0.0,50,0.00,,---,0.00,707.00,VWS V14.01,2013-07-19 19:46:00,
2013-07-19 15:51:00,96.6,75.5,29.82,SW,225,0.0,0.0,51,0.00,,---,0.00,712.00,VWS V14.01,2013-07-19 19:51:00,
2013-07-19 15:56:00,97.6,75.2,29.82,WSW,248,0.0,0.0,49,0.00,,---,0.00,719.00,VWS V14.01,2013-07-19 19:56:00,
2013-07-19 16:01:00,98.2,75.2,29.81,WSW,248,0.0,0.0,48,0.00,,---,0.00,675.00,VWS V14.01,2013-07-19 20:01:00,
2013-07-19 16:06:00,97.6,74.0,29.81,WNW,293,0.0,0.0,47,0.00,,---,0.00,640.00,VWS V14.01,2013-07-19 20:06:00,
2013-07-19 16:11:00,97.0,74.1,29.81,South,173,0.0,0.0,48,0.00,,---,0.00,624.00,VWS V14.01,2013-07-19 20:11:00,
2013-07-19 16:16:00,96.6,73.1,29.81,SW,216,0.0,0.0,47,0.00,,---,0.00,615.00,VWS V14.01,2013-07-19 20:16:00,
2013-07-19 16:21:00,96.9,72.7,29.81,WNW,284,0.0,0.0,46,0.00,,---,0.00,615.00,VWS V14.01,2013-07-19 20:21:00,
2013-07-19 16:26:00,97.3,73.1,29.81,SSW,212,0.0,0.0,46,0.00,,---,0.00,601.00,VWS V14.01,2013-07-19 20:26:00,
2013-07-19 16:31:00,97.0,72.8,29.80,SSW,200,0.0,0.0,46,0.00,,---,0.00,578.00,VWS V14.01,2013-07-19 20:31:00,
2013-07-19 16:36:00,97.1,72.9,29.80,SW,221,0.0,0.0,46,0.00,,---,0.00,547.00,VWS V14.01,2013-07-19 20:36:00,
2013-07-19 16:41:00,96.9,72.7,29.80,SW,222,0.0,0.0,46,0.00,,---,0.00,580.00,VWS V14.01,2013-07-19 20:41:00,
2013-07-19 16:46:00,96.5,73.0,29.80,West,262,0.0,0.0,47,0.00,,---,0.00,522.00,VWS V14.01,2013-07-19 20:46:00,
2013-07-19 16:51:00,97.1,72.9,29.80,SSE,163,0.0,0.0,46,0.00,,---,0.00,536.00,VWS V14.01,2013-07-19 20:51:00,
2013-07-19 16:56:00,96.8,72.6,29.79,SSW,211,0.0,0.0,46,0.00,,---,0.00,366.00,VWS V14.01,2013-07-19 20:56:00,
2013-07-19 17:01:00,96.9,73.3,29.79,West,273,0.0,0.0,47,0.00,,---,0.00,513.00,VWS V14.01,2013-07-19 21:01:00,
2013-07-19 17:06:00,96.6,73.1,29.79,SSW,205,0.0,0.0,47,0.00,,---,0.00,501.00,VWS V14.01,2013-07-19 21:06:00,
2013-07-19 17:11:00,96.4,74.1,29.79,SSW,213,0.0,0.0,49,0.00,,---,0.00,524.00,VWS V14.01,2013-07-19 21:11:00,
2013-07-19 17:16:00,96.9,74.0,29.79,West,265,0.0,0.0,48,0.00,,---,0.00,499.00,VWS V14.01,2013-07-19 21:16:00,
2013-07-19 17:21:00,97.2,74.2,29.79,NW,315,0.0,0.0,48,0.00,,---,0.00,475.00,VWS V14.01,2013-07-19 21:21:00,
2013-07-19 17:26:00,97.0,73.4,29.79,WSW,250,0.0,0.0,47,0.00,,---,0.00,461.00,VWS V14.01,2013-07-19 21:26:00,
2013-07-19 17:31:00,96.7,73.2,29.78,SW,232,0.0,0.0,47,0.00,,---,0.00,429.00,VWS V14.01,2013-07-19 21:31:00,
2013-07-19 17:36:00,96.3,72.8,29.78,WSW,246,0.0,0.0,47,0.00,,---,0.00,396.00,VWS V14.01,2013-07-19 21:36:00,
2013-07-19 17:41:00,95.7,73.5,29.78,West,272,0.0,0.0,49,0.00,,---,0.00,385.00,VWS V14.01,2013-07-19 21:41:00,
2013-07-19 17:46:00,95.6,73.4,29.78,SW,225,0.0,0.0,49,0.00,,---,0.00,369.00,VWS V14.01,2013-07-19 21:46:00,
2013-07-19 17:51:00,95.5,73.3,29.78,SSW,206,0.0,0.0,49,0.00,,---,0.00,348.00,VWS V14.01,2013-07-19 21:51:00,
2013-07-19 17:56:00,95.1,74.1,29.78,SSW,202,0.0,0.0,51,0.00,,---,0.00,311.00,VWS V14.01,2013-07-19 21:56:00,
2013-07-19 18:01:00,95.1,74.7,29.77,South,191,0.0,0.0,52,0.00,,---,0.00,318.00,VWS V14.01,2013-07-19 22:01:00,
2013-07-19 18:06:00,95.3,74.9,29.78,SW,232,0.0,0.0,52,0.00,,---,0.00,279.00,VWS V14.01,2013-07-19 22:06:00,
2013-07-19 18:11:00,95.0,74.6,29.78,WSW,237,0.0,0.0,52,0.00,,---,0.00,281.00,VWS V14.01,2013-07-19 22:11:00,
2013-07-19 18:16:00,94.9,73.9,29.78,WSW,254,0.0,0.0,51,0.00,,---,0.00,269.00,VWS V14.01,2013-07-19 22:16:00,
2013-07-19 18:21:00,95.1,74.7,29.78,WSW,251,0.0,0.0,52,0.00,,---,0.00,243.00,VWS V14.01,2013-07-19 22:21:00,
2013-07-19 18:26:00,94.8,74.4,29.78,WSW,246,0.0,0.0,52,0.00,,---,0.00,91.00,VWS V14.01,2013-07-19 22:26:00,
2013-07-19 18:31:00,94.8,74.4,29.78,WNW,295,0.0,0.0,52,0.00,,---,0.00,214.00,VWS V14.01,2013-07-19 22:31:00,
2013-07-19 18:36:00,94.5,74.7,29.78,SSW,208,0.0,0.0,53,0.00,,---,0.00,144.00,VWS V14.01,2013-07-19 22:36:00,
2013-07-19 18:41:00,94.0,74.8,29.78,SSW,201,0.0,0.0,54,0.00,,---,0.00,102.00,VWS V14.01,2013-07-19 22:41:00,
2013-07-19 18:46:00,93.7,75.1,29.78,WSW,251,0.0,0.0,55,0.00,,---,0.00,76.00,VWS V14.01,2013-07-19 22:46:00,
2013-07-19 18:51:00,93.5,74.9,29.78,WSW,238,0.0,0.0,55,0.00,,---,0.00,105.00,VWS V14.01,2013-07-19 22:51:00,
2013-07-19 18:56:00,93.5,75.5,29.78,West,266,0.0,0.0,56,0.00,,---,0.00,72.00,VWS V14.01,2013-07-19 22:56:00,
2013-07-19 19:01:00,93.2,75.7,29.78,WSW,246,0.0,0.0,57,0.00,,---,0.00,90.00,VWS V14.01,2013-07-19 23:01:00,
2013-07-19 19:06:00,93.0,75.5,29.78,South,180,0.0,0.0,57,0.00,,---,0.00,105.00,VWS V14.01,2013-07-19 23:06:00,
2013-07-19 19:11:00,92.9,75.9,29.78,West,259,0.0,0.0,58,0.00,,---,0.00,90.00,VWS V14.01,2013-07-19 23:11:00,
2013-07-19 19:16:00,92.8,76.4,29.78,SW,223,0.0,0.0,59,0.00,,---,0.00,74.00,VWS V14.01,2013-07-19 23:16:00,
2013-07-19 19:21:00,92.5,76.6,29.78,West,261,0.0,0.0,60,0.00,,---,0.00,72.00,VWS V14.01,2013-07-19 23:21:00,
2013-07-19 19:26:00,92.3,76.4,29.78,SSW,203,0.0,0.0,60,0.00,,---,0.00,62.00,VWS V14.01,2013-07-19 23:26:00,
2013-07-19 19:31:00,92.1,76.7,29.78,SW,226,0.0,0.0,61,0.00,,---,0.00,46.00,VWS V14.01,2013-07-19 23:31:00,
2013-07-19 19:36:00,92.0,76.6,29.78,West,275,0.0,0.0,61,0.00,,---,0.00,32.00,VWS V14.01,2013-07-19 23:36:00,
2013-07-19 19:41:00,92.2,76.3,29.78,SW,227,0.0,0.0,60,0.00,,---,0.00,19.00,VWS V14.01,2013-07-19 23:41:00,
2013-07-19 19:46:00,92.0,76.1,29.78,WSW,243,0.0,0.0,60,0.00,,---,0.00,14.00,VWS V14.01,2013-07-19 23:46:00,
2013-07-19 19:51:00,91.7,76.3,29.78,South,177,0.0,0.0,61,0.00,,---,0.00,12.00,VWS V14.01,2013-07-19 23:51:00,
2013-07-19 19:56:00,91.4,76.1,29.78,SW,232,0.0,0.0,61,0.00,,---,0.00,11.00,VWS V14.01,2013-07-19 23:56:00,
2013-07-19 20:01:00,91.1,75.8,29.79,SW,226,0.0,0.0,61,0.00,,---,0.00,14.00,VWS V14.01,2013-07-20 00:01:00,
2013-07-19 20:06:00,90.9,76.1,29.79,West,280,0.0,0.0,62,0.00,,---,0.00,12.00,VWS V14.01,2013-07-20 00:06:00,
2013-07-19 20:11:00,90.9,76.1,29.80,West,276,0.0,0.0,62,0.00,,---,0.00,9.00,VWS V14.01,2013-07-20 00:11:00,
2013-07-19 20:16:00,90.8,76.0,29.79,South,177,0.0,0.0,62,0.00,,---,0.00,5.00,VWS V14.01,2013-07-20 00:16:00,
2013-07-19 20:21:00,90.7,75.9,29.80,WSW,248,0.0,0.0,62,0.00,,---,0.00,0.00,VWS V14.01,2013-07-20 00:21:00,
2013-07-19 20:26:00,90.6,75.8,29.80,West,261,0.0,0.0,62,0.00,,---,0.00,0.00,VWS V14.01,2013-07-20 00:26:00,
2013-07-19 20:31:00,90.7,75.9,29.80,SSW,205,0.0,0.0,62,0.00,,---,0.00,0.00,VWS V14.01,2013-07-20 00:31:00,
2013-07-19 20:36:00,90.8,75.5,29.81,West,268,0.0,0.0,61,0.00,,---,0.00,0.00,VWS V14.01,2013-07-20 00:36:00,
2013-07-19 20:41:00,90.5,75.2,29.81,SSW,198,0.0,0.0,61,0.00,,---,0.00,0.00,VWS V14.01,2013-07-20 00:41:00,
2013-07-19 20:46:00,90.4,75.6,29.81,WSW,248,0.0,0.0,62,0.00,,---,0.00,0.00,VWS V14.01,2013-07-20 00:46:00,
2013-07-19 20:51:00,90.3,75.5,29.82,WSW,243,0.0,0.0,62,0.00,,---,0.00,0.00,VWS V14.01,2013-07-20 00:51:00,
2013-07-19 20:56:00,90.2,75.4,29.81,SW,227,0.0,0.0,62,0.00,,---,0.00,0.00,VWS V14.01,2013-07-20 00:56:00,
2013-07-19 21:01:00,90.1,75.8,29.81,SSW,212,0.0,0.0,63,0.00,,---,0.00,0.00,VWS V14.01,2013-07-20 01:01:00,
2013-07-19 21:06:00,90.0,75.7,29.81,WSW,246,0.0,0.0,63,0.00,,---,0.00,0.00,VWS V14.01,2013-07-20 01:06:00,
2013-07-19 21:11:00,89.9,75.6,29.81,SW,229,0.0,0.0,63,0.00,,---,0.00,0.00,VWS V14.01,2013-07-20 01:11:00,
2013-07-19 21:16:00,89.8,75.5,29.82,WSW,245,0.0,0.0,63,0.00,,---,0.00,0.00,VWS V14.01,2013-07-20 01:16:00,
2013-07-19 21:21:00,89.7,75.9,29.82,WSW,247,0.0,0.0,64,0.00,,---,0.00,0.00,VWS V14.01,2013-07-20 01:21:00,
2013-07-19 21:26:00,89.5,75.7,29.82,WSW,250,0.0,0.0,64,0.00,,---,0.00,0.00,VWS V14.01,2013-07-20 01:26:00,
2013-07-19 21:31:00,89.4,75.6,29.82,West,264,0.0,0.0,64,0.00,,---,0.00,0.00,VWS V14.01,2013-07-20 01:31:00,
2013-07-19 21:36:00,89.3,76.0,29.82,SSW,207,0.0,0.0,65,0.00,,---,0.00,0.00,VWS V14.01,2013-07-20 01:36:00,
2013-07-19 21:41:00,88.7,74.0,29.83,NW,314,0.0,0.0,62,0.00,,---,0.00,0.00,VWS V14.01,2013-07-20 01:41:00,
2013-07-19 21:46:00,87.5,72.4,29.82,SSW,194,0.0,0.0,61,0.00,,---,0.00,0.00,VWS V14.01,2013-07-20 01:46:00,
2013-07-19 21:51:00,86.6,72.0,29.82,SSW,195,0.0,0.0,62,0.00,,---,0.00,0.00,VWS V14.01,2013-07-20 01:51:00,
2013-07-19 21:56:00,86.0,72.4,29.81,SSW,207,0.0,0.0,64,0.00,,---,0.00,0.00,VWS V14.01,2013-07-20 01:56:00,
2013-07-19 22:01:00,85.6,72.5,29.81,WSW,254,0.0,0.0,65,0.00,,---,0.00,0.00,VWS V14.01,2013-07-20 02:01:00,
2013-07-19 22:06:00,85.4,73.2,29.81,WSW,250,0.0,0.0,67,0.00,,---,0.00,0.00,VWS V14.01,2013-07-20 02:06:00,
2013-07-19 22:11:00,85.2,73.4,29.81,WNW,295,0.0,0.0,68,0.00,,---,0.00,0.00,VWS V14.01,2013-07-20 02:11:00,
2013-07-19 22:16:00,85.1,73.8,29.81,SW,219,0.0,0.0,69,0.00,,---,0.00,0.00,VWS V14.01,2013-07-20 02:16:00,
2013-07-19 22:21:00,85.1,73.8,29.80,SW,222,0.0,0.0,69,0.00,,---,0.00,0.00,VWS V14.01,2013-07-20 02:21:00,
2013-07-19 22:26:00,85.1,74.2,29.80,South,175,0.0,0.0,70,0.00,,---,0.00,0.00,VWS V14.01,2013-07-20 02:26:00,
2013-07-19 22:31:00,85.1,74.2,29.80,SSW,202,0.0,0.0,70,0.00,,---,0.00,0.00,VWS V14.01,2013-07-20 02:31:00,
2013-07-19 22:36:00,85.1,74.6,29.80,SW,221,0.0,0.0,71,0.00,,---,0.00,0.00,VWS V14.01,2013-07-20 02:36:00,
2013-07-19 22:41:00,85.3,74.8,29.79,SW,227,0.0,0.0,71,0.00,,---,0.00,0.00,VWS V14.01,2013-07-20 02:41:00,
2013-07-19 22:46:00,85.2,74.7,29.78,SW,226,0.0,0.0,71,0.00,,---,0.00,0.00,VWS V14.01,2013-07-20 02:46:00,
2013-07-19 22:51:00,85.5,75.0,29.79,SW,226,0.0,0.0,71,0.00,,---,0.00,0.00,VWS V14.01,2013-07-20 02:51:00,
2013-07-19 22:56:00,85.5,75.0,29.78,SW,226,0.0,0.0,71,0.00,,---,0.00,0.00,VWS V14.01,2013-07-20 02:56:00,
2013-07-19 23:01:00,85.6,75.1,29.78,SW,226,0.0,0.0,71,0.00,,---,0.00,0.00,VWS V14.01,2013-07-20 03:01:00,
2013-07-19 23:06:00,85.7,75.2,29.78,SW,226,0.0,0.0,71,0.00,,---,0.00,0.00,VWS V14.01,2013-07-20 03:06:00,
2013-07-19 23:11:00,85.6,75.5,29.78,SW,226,0.0,0.0,72,0.00,,---,0.00,0.00,VWS V14.01,2013-07-20 03:11:00,
2013-07-19 23:16:00,85.2,75.2,29.78,SW,226,0.0,0.0,72,0.00,,---,0.00,0.00,VWS V14.01,2013-07-20 03:16:00,
2013-07-19 23:21:00,85.0,75.4,29.78,SW,226,0.0,0.0,73,0.00,,---,0.00,0.00,VWS V14.01,2013-07-20 03:21:00,
2013-07-19 23:26:00,85.6,75.5,29.78,SW,226,0.0,0.0,72,0.00,,---,0.00,0.00,VWS V14.01,2013-07-20 03:26:00,
2013-07-19 23:31:00,85.1,75.5,29.78,SW,226,0.0,0.0,73,0.00,,---,0.00,0.00,VWS V14.01,2013-07-20 03:31:00,
2013-07-19 23:36:00,85.0,75.8,29.78,SW,227,0.0,0.0,74,0.00,,---,0.00,0.00,VWS V14.01,2013-07-20 03:36:00,
2013-07-19 23:41:00,84.8,75.6,29.78,SW,226,0.0,0.0,74,0.00,,---,0.00,0.00,VWS V14.01,2013-07-20 03:41:00,
2013-07-19 23:46:00,85.0,76.2,29.78,SW,226,0.0,0.0,75,0.00,,---,0.00,0.00,VWS V14.01,2013-07-20 03:46:00,
2013-07-19 23:51:00,84.9,76.1,29.78,SW,226,0.0,0.0,75,0.00,,---,0.00,0.00,VWS V14.01,2013-07-20 03:51:00,
2013-07-19 23:56:00,84.6,76.2,29.79,SW,226,0.0,0.0,76,0.00,,---,0.00,0.00,VWS V14.01,2013-07-20 03:56:00,